PORT of PALM BEACH

Държава: USA Държава: USA (US)
Географска ширина / дължина: 26.77417° / -80.045° Покажи върху картата Покажи върху картата
Мстно време:  UTC-4
UN/LOCODE: USPAB
Кораби в пристанището в момента: 2
Очаквани за отплаване: 1

Последни пристигащи и отплавали


Име на кораба
Пристигащи (UTC)
Пристигащи (LT)
Заминаващи (UTC)
Заминаващи (LT)
Vessel Type: Влекач, пилотски и др.  ELLIE J 2014-10-20 06:31:00 2014-10-20 02:31:00 2014-10-20 07:03:00 2014-10-20 03:03:00
Vessel Type: Яхти и други  M4 2014-10-20 05:01:00 2014-10-20 01:01:00 2014-10-20 05:21:00 2014-10-20 01:21:00
Vessel Type: Яхти и други  CELTIC LADY 2014-10-19 17:57:00 2014-10-19 13:57:00 2014-10-19 18:57:00 2014-10-19 14:57:00
Vessel Type: Яхти и други  CASTLEFINN 2014-10-19 14:44:00 2014-10-19 10:44:00 2014-10-19 15:05:00 2014-10-19 11:05:00
Vessel Type: Яхти и други  SEA RACER 2014-10-18 19:42:00 2014-10-18 15:42:00 2014-10-19 00:05:00 2014-10-18 20:05:00
Vessel Type: Пътнически кораб  BAHAMAS CELEBRATION 2014-10-18 11:02:00 2014-10-18 07:02:00 2014-10-18 22:39:00 2014-10-18 18:39:00
Vessel Type: Товарни кораби  TROPIC EXPRESS 2014-10-18 14:00:00 2014-10-18 10:00:00 2014-10-18 22:24:00 2014-10-18 18:24:00
Vessel Type: Товарни кораби  RICKMERS YOKOHAMA 2014-10-15 19:26:00 2014-10-15 15:26:00 2014-10-18 21:52:00 2014-10-18 17:52:00
Vessel Type: Яхти и други  SILVER C 2014-10-18 17:03:00 2014-10-18 13:03:00 2014-10-18 17:37:00 2014-10-18 13:37:00
Vessel Type: Яхти и други  MODERATION 2014-10-18 15:52:00 2014-10-18 11:52:00

Очаквани за отплаване


Име на кораба
Scheduled Arrival (UTC)
Scheduled Arrival (LT)
Очаквано отплаване (UTC)
Очаквано отплаване (местно време)
Vessel Type: Товарни кораби  CARIBE LEGEND 2014-10-22 02:00:00 2014-10-21 22:00:00 2014-10-22 04:07:00 2014-10-22 00:07:00

Wind Forecast


    
Време (UTC)
Скорост
Direction
Temperature
2014-10-20 06:00:00 6 knots 129° 26°C
2014-10-20 09:00:00 4 knots 156° 26°C
2014-10-20 12:00:00 4 knots 127° 26°C
2014-10-20 15:00:00 6 knots 119° 26°C
2014-10-20 18:00:00 7 knots 118° 27°C
2014-10-20 21:00:00 7 knots 120° 26°C
2014-10-21 00:00:00 6 knots 128° 26°C
2014-10-21 03:00:00 7 knots 140° 26°C
2014-10-21 06:00:00 6 knots 169° 26°C
2014-10-21 09:00:00 3 knots 198° 26°C
2014-10-21 12:00:00 0 knots 272° 25°C
2014-10-21 15:00:00 2 knots 63° 26°C
2014-10-21 18:00:00 5 knots 76° 27°C
2014-10-21 21:00:00 7 knots 84° 27°C
2014-10-22 00:00:00 7 knots 123° 26°C
2014-10-22 03:00:00 4 knots 157° 26°C
2014-10-22 06:00:00 2 knots 229° 26°C